Torna al catalogo

CZ-6A DEB

AttivoPO
NORAD 61837·DEBRIS·🇨🇳 China

Lanciato Aug 6, 2024 da Taiyuan Satellite Launch Center

Loading…

Prossimi Passaggi (prossime 24 ore)

TLE

AggiornatoSource: Space-Track

Epoca: Sep 14, 2026, 10:18 UTC

1 61837U 24140ADD 26257.42927527  .00002333  00000-0  12101-2 0  9994
2 61837  88.8417 252.4073 0102308 310.8352  48.3996 14.11867619102424

Traccia CZ-6A DEB in tempo reale con AllMySat

Download on the App Store